Regional Weather Roundup
Issued by NWS

Home | Current Version | Previous Version | Graphics & Text | Print | Product List | Glossary On
Versions: 1 2 3 4 5 6 7 8 9 10 11 12 13 14 15 16 17 18 19 20 21 22 23 24 25 26 27 28 29 30 31 32 33 34 35 36 37 38 39 40 41 42 43 44 45 46 47 48 49 50
000
ASUS43 KDMX 180501
RWRIA

WEATHER ROUNDUP FOR IOWA
NATIONAL WEATHER SERVICE DES MOINES IA
1100 PM CST SUN DEC 17 2017

NOTE: "FAIR" INDICATES FEW OR NO CLOUDS BELOW 12,000 FEET WITH NO
SIGNIFICANT WEATHER AND/OR OBSTRUCTIONS TO VISIBILITY.

* - THESE STATIONS ARE NOT NWS STATIONS...THUS NOT UNDER NWS
QUALITY CONTROL.  THEY ALSO DO NOT REPORT WEATHER SUCH
AS PRECIPITATION OR FOG.

IAZ001>003-012>014-020>022-031>034-043>046-180600-
   NORTHWEST IOWA

CITY           SKY/WX    TMP DP  RH WIND       PRES   REMARKS
CARROLL *      MOCLDY    27  25  93 W6        29.97F FOG     WCI  20
CHEROKEE *     CLEAR     27  26  97 CALM      29.96S FOG
DENISON *      PTCLDY    27  25  93 CALM      29.99F FOG
LE MARS *      CLEAR     23  21  93 S3        29.95F FOG
ORANGE CITY *  CLOUDY    25  25 100 SW3       29.93F FOG
SHELDON *      CLOUDY    23  23 100 S3        29.92F FOG
SIOUX CITY     CLOUDY    21  20  96 S3        29.97F FOG
SPENCER        CLOUDY    19  17  92 S3        29.94F FOG
STORM LAKE *   PTCLDY    25  25 100 SW7       29.94F FOG     WCI  17
$$

IAZ055>058-069>071-079>083-090>094-180600-
   SOUTHWEST IOWA

CITY           SKY/WX    TMP DP  RH WIND       PRES   REMARKS
ATLANTIC *     PTCLDY    25  25 100 S3        30.01R
AUDUBON *      CLOUDY    27  23  86 CALM      29.97F
CLARINDA *     CLOUDY    34  34 100 NW3       30.03S FOG
COUNCIL BLFS * PTCLDY    28  28 100 CALM      29.99F
CRESTON *      FOG       30  30 100 W6        30.00S VSB 1/4 WCI  24
HARLAN  *      PTCLDY    27  27 100 SW3       30.02F
LAMONI         FOG       36  35  96 W8        29.99F VSB 1   WCI  30
RED OAK *      CLOUDY    30  30 100 CALM      30.02R FOG
SHENANDOAH *   CLOUDY    32  32 100 CALM      30.03R FOG
$$

IAZ047>049-059>061-072>074-084-180600-
   CENTRAL IOWA

CITY           SKY/WX    TMP DP  RH WIND       PRES   REMARKS
AMES           PTCLDY    27  27 100 W3        29.98S FOG
ANKENY *       PTCLDY    28  27  93 W5        30.01R FOG     WCI  23
BOONE *        CLOUDY    28  27  93 W5        29.97R FOG     WCI  23
CHARITON *     CLOUDY    37  37 100 SW7       29.98F FOG     WCI  32
DES MOINES     PTCLDY    30  26  85 W6        30.00R WCI  24
GRINNELL*      PTCLDY    33  31  93 SW7       29.98R WCI  27
KNOXVILLE *    CLOUDY    36  34  93 SW8       29.98R WCI  29
MARSHALLTOWN   MOCLDY    29  26  89 NW3       29.97R FOG
NEWTON *       PTCLDY    32  30  93 SW7       29.98S WCI  26
PELLA *        MOCLDY    35  33  91 SW6       30.01R WCI  30
$$

IAZ004>006-015-016-023>025-035-036-180600-
   NORTH CENTRAL IOWA

CITY           SKY/WX    TMP DP  RH WIND       PRES   REMARKS
ALGONA *       CLOUDY    28  28 100 SW5       29.94F FOG     WCI  23
CLARION *      CLOUDY    30  30 100 W7        29.96S FOG     WCI  23
ESTHERVILLE    CLOUDY    21  21 100 S5        29.94S WCI  15
FORT DODGE *   CLOUDY    27  25  92 SW3       29.97S FOG
MASON CITY     CLOUDY    28  27  96 W6        29.96F FOG     WCI  22
FOREST CITY *  CLOUDY    30  30 100 SW5       29.94F FOG     WCI  25
WEBSTER CITY * CLOUDY    30  27  86 W6        29.95R WCI  24
IOWA FALLS *   MOCLDY    32  29  89 CALM      29.96F
$$

IAZ007>011-017>019-026>030-037>042-050>054-066-180600-
   NORTHEAST IOWA

CITY           SKY/WX    TMP DP  RH WIND       PRES   REMARKS
CEDAR RAPIDS   FOG       36  36 100 SW5       29.96S VSB 3/4 WCI  32
CLINTON *      FOG       36  36 100 SW3       29.97F VSB 1/2
DECORAH *      CLOUDY    32  30  93 CALM      29.93F FOG
DUBUQUE        FOG       33  33 100 W3        29.95F VSB 1
MONTICELLO *   FOG       36  34  93 CALM      29.96S VSB 3/4
OELWEIN *      CLOUDY    30  30 100 NW5       29.96R FOG     WCI  25
WATERLOO       CLOUDY    29  27  92 W5        29.97S FOG     WCI  24
$$

IAZ064-065-067-068-078-180600-
   EAST CENTRAL IOWA

CITY           SKY/WX    TMP DP  RH WIND       PRES   REMARKS
DAVENPORT      CLOUDY    38  37  97 W5        29.99S FOG     WCI  34
IOWA CITY      FOG       38  37  97 SW3       29.99S VSB 1/2
MT. PLEASANT * CLOUDY    42  42 100 SW9       29.99S
MUSCATINE *    FOG       39  37  93 CALM      29.99S VSB 1/4
QUAD CITIES    FOG       39  39 100 CALM      29.97S VSB 3/4
$$

IAZ062-063-075>077-085>089-095>099-180600-
   SOUTHEAST IOWA

CITY           SKY/WX    TMP DP  RH WIND       PRES   REMARKS
BURLINGTON     CLOUDY    44  43  96 SW9       29.99R
FAIRFIELD *    FOG       41  41 100 W8        29.99R VSB 1/4
FORT MADISON * CLOUDY    45  45 100 SW7       30.01R
KEOKUK *       CLOUDY    45  43  93 SW8       30.00S
OSKALOOSA *    CLOUDY    36  36  99 W9        30.00R FOG     WCI  29
OTTUMWA        FOG       39  32  76 W6        29.99R VSB 1   WCI  35
WASHINGTON *   FOG       39  39 100 S6        29.99S VSB<1/4 WCI  35
$$

ABBREVIATIONS USED IN REMARKS
   TC - TEMPERATURES IN CELSIUS
  WCI - WIND CHILL INDEX
   HX - HEAT INDEX
  VSB - VISIBILITY
$$





USA.gov is the U.S. government's official web portal to all federal, state and local government web resources and services.